Year,Month,Day,Hour,Minute,Value (Times are PST for windgust in km/hr)
2018,04,12,00,00,1.60
2018,04,12,00,01,1.60
2018,04,12,00,02,3.20
2018,04,12,00,03,1.60
2018,04,12,00,05,3.20
2018,04,12,00,06,3.20
2018,04,12,00,07,1.60
2018,04,12,00,08,6.40
2018,04,12,00,09,6.40
2018,04,12,00,10,4.80
2018,04,12,00,11,1.60
2018,04,12,00,12,3.20
2018,04,12,00,13,3.20
2018,04,12,00,14,3.20
2018,04,12,00,15,1.60
2018,04,12,00,16,1.60
2018,04,12,00,17,3.20
2018,04,12,00,18,4.80
2018,04,12,00,19,1.60
2018,04,12,00,20,3.20
2018,04,12,00,21,1.60
2018,04,12,00,22,1.60
2018,04,12,00,23,1.60
2018,04,12,00,24,1.60
2018,04,12,00,25,1.60
2018,04,12,00,26,1.60
2018,04,12,00,27,1.60
2018,04,12,00,29,3.20
2018,04,12,00,30,3.20
2018,04,12,00,31,1.60
2018,04,12,00,32,3.20
2018,04,12,00,33,1.60
2018,04,12,00,34,4.80
2018,04,12,00,35,4.80
2018,04,12,00,36,3.20
2018,04,12,00,37,4.80
2018,04,12,00,38,3.20
2018,04,12,00,39,3.20
2018,04,12,00,40,1.60
2018,04,12,00,41,1.60
2018,04,12,00,42,3.20
2018,04,12,00,43,1.60
2018,04,12,00,44,1.60
2018,04,12,00,45,1.60
2018,04,12,00,46,4.80
2018,04,12,00,47,3.20
2018,04,12,00,48,1.60
2018,04,12,00,49,1.60
2018,04,12,00,50,4.80
2018,04,12,00,51,4.80
2018,04,12,00,52,1.60
2018,04,12,00,53,4.80
2018,04,12,00,54,1.60
2018,04,12,00,55,4.80
2018,04,12,00,56,3.20
2018,04,12,00,57,3.20
2018,04,12,00,58,4.80
2018,04,12,00,59,3.20
2018,04,12,01,00,3.20
2018,04,12,01,01,3.20
2018,04,12,01,02,1.60
2018,04,12,01,05,1.60
2018,04,12,01,06,4.80
2018,04,12,01,09,6.40
2018,04,12,01,10,4.80
2018,04,12,01,11,3.20
2018,04,12,01,12,3.20
2018,04,12,01,13,4.80
2018,04,12,01,14,4.80
2018,04,12,01,15,4.80
2018,04,12,01,16,1.60
2018,04,12,01,17,1.60
2018,04,12,01,18,8.10
2018,04,12,01,19,8.10
2018,04,12,01,20,6.40
2018,04,12,01,21,4.80
2018,04,12,01,22,3.20
2018,04,12,01,23,8.10
2018,04,12,01,24,3.20
2018,04,12,01,25,6.40
2018,04,12,01,26,3.20
2018,04,12,01,27,3.20
2018,04,12,01,28,4.80
2018,04,12,01,29,3.20
2018,04,12,01,30,4.80
2018,04,12,01,31,6.40
2018,04,12,01,32,8.10
2018,04,12,01,33,4.80
2018,04,12,01,34,4.80
2018,04,12,01,35,3.20
2018,04,12,01,36,3.20
2018,04,12,01,37,1.60
2018,04,12,01,38,1.60
2018,04,12,01,39,1.60
2018,04,12,01,40,1.60
2018,04,12,01,41,3.20
2018,04,12,01,42,1.60
2018,04,12,01,43,3.20
2018,04,12,01,44,4.80
2018,04,12,01,45,3.20
2018,04,12,01,46,1.60
2018,04,12,01,47,3.20
2018,04,12,01,48,3.20
2018,04,12,01,49,3.20
2018,04,12,01,50,1.60
2018,04,12,01,51,1.60
2018,04,12,01,52,1.60
2018,04,12,02,00,1.60
2018,04,12,02,02,1.60
2018,04,12,02,03,1.60
2018,04,12,02,05,4.80
2018,04,12,02,06,1.60
2018,04,12,02,07,1.60
2018,04,12,02,13,1.60
2018,04,12,02,14,1.60
2018,04,12,02,15,1.60
2018,04,12,02,16,1.60
2018,04,12,02,17,1.60
2018,04,12,02,19,1.60
2018,04,12,02,21,1.60
2018,04,12,02,22,1.60
2018,04,12,02,25,3.20
2018,04,12,02,26,4.80
2018,04,12,02,27,3.20
2018,04,12,02,28,3.20
2018,04,12,02,29,6.40
2018,04,12,02,30,3.20
2018,04,12,02,31,4.80
2018,04,12,02,32,8.10
2018,04,12,02,33,6.40
2018,04,12,02,34,9.60
2018,04,12,02,35,4.80
2018,04,12,02,36,6.40
2018,04,12,02,37,8.10
2018,04,12,02,38,3.20
2018,04,12,02,39,3.20
2018,04,12,02,40,4.80
2018,04,12,02,41,3.20
2018,04,12,02,42,1.60
2018,04,12,02,43,1.60
2018,04,12,02,44,4.80
2018,04,12,02,45,1.60
2018,04,12,02,46,3.20
2018,04,12,02,47,3.20
2018,04,12,02,48,1.60
2018,04,12,02,50,1.60
2018,04,12,02,51,8.10
2018,04,12,02,52,8.10
2018,04,12,02,53,6.40
2018,04,12,02,54,6.40
2018,04,12,02,55,3.20
2018,04,12,02,56,1.60
2018,04,12,02,57,3.20
2018,04,12,02,58,3.20
2018,04,12,02,59,3.20
2018,04,12,03,00,3.20
2018,04,12,03,01,4.80
2018,04,12,03,02,3.20
2018,04,12,03,03,3.20
2018,04,12,03,04,6.40
2018,04,12,03,05,6.40
2018,04,12,03,06,4.80
2018,04,12,03,07,3.20
2018,04,12,03,08,3.20
2018,04,12,03,09,1.60
2018,04,12,03,10,3.20
2018,04,12,03,11,3.20
2018,04,12,03,12,4.80
2018,04,12,03,13,3.20
2018,04,12,03,14,6.40
2018,04,12,03,15,4.80
2018,04,12,03,16,4.80
2018,04,12,03,17,8.10
2018,04,12,03,18,6.40
2018,04,12,03,19,3.20
2018,04,12,03,20,6.40
2018,04,12,03,21,4.80
2018,04,12,03,22,3.20
2018,04,12,03,23,3.20
2018,04,12,03,24,3.20
2018,04,12,03,26,4.80
2018,04,12,03,27,4.80
2018,04,12,03,28,1.60
2018,04,12,03,29,1.60
2018,04,12,03,32,3.20
2018,04,12,03,33,4.80
2018,04,12,03,34,4.80
2018,04,12,03,35,3.20
2018,04,12,03,36,4.80
2018,04,12,03,37,1.60
2018,04,12,03,38,1.60
2018,04,12,03,39,3.20
2018,04,12,03,40,3.20
2018,04,12,03,41,3.20
2018,04,12,03,42,3.20
2018,04,12,03,43,3.20
2018,04,12,03,44,3.20
2018,04,12,03,45,1.60
2018,04,12,03,46,3.20
2018,04,12,03,47,3.20
2018,04,12,03,48,3.20
2018,04,12,03,49,1.60
2018,04,12,03,51,3.20
2018,04,12,03,53,1.60
2018,04,12,03,54,8.10
2018,04,12,03,55,6.40
2018,04,12,03,56,4.80
2018,04,12,03,57,1.60
2018,04,12,03,58,4.80
2018,04,12,03,59,3.20
2018,04,12,04,00,1.60
2018,04,12,04,01,3.20
2018,04,12,04,02,3.20
2018,04,12,04,03,1.60
2018,04,12,04,04,1.60
2018,04,12,04,05,1.60
2018,04,12,04,06,4.80
2018,04,12,04,08,3.20
2018,04,12,04,09,1.60
2018,04,12,04,10,1.60
2018,04,12,04,11,3.20
2018,04,12,04,12,1.60
2018,04,12,04,16,1.60
2018,04,12,04,17,1.60
2018,04,12,04,19,1.60
2018,04,12,04,23,1.60
2018,04,12,04,24,3.20
2018,04,12,04,25,4.80
2018,04,12,04,26,4.80
2018,04,12,04,27,4.80
2018,04,12,04,28,3.20
2018,04,12,04,29,3.20
2018,04,12,04,30,6.40
2018,04,12,04,31,6.40
2018,04,12,04,32,3.20
2018,04,12,04,33,3.20
2018,04,12,04,34,1.60
2018,04,12,04,35,3.20
2018,04,12,04,36,4.80
2018,04,12,04,37,4.80
2018,04,12,04,38,1.60
2018,04,12,04,39,3.20
2018,04,12,04,40,1.60
2018,04,12,04,44,1.60
2018,04,12,04,45,1.60
2018,04,12,04,46,1.60
2018,04,12,04,49,3.20
2018,04,12,04,50,1.60
2018,04,12,04,52,1.60
2018,04,12,04,53,1.60
2018,04,12,04,55,4.80
2018,04,12,04,56,1.60
2018,04,12,04,57,1.60
2018,04,12,05,00,1.60
2018,04,12,05,01,1.60
2018,04,12,05,02,1.60
2018,04,12,05,03,1.60
2018,04,12,05,07,1.60
2018,04,12,05,13,1.60
2018,04,12,05,40,1.60
2018,04,12,05,41,1.60
2018,04,12,05,43,1.60
2018,04,12,05,44,1.60
2018,04,12,06,19,1.60
2018,04,12,06,20,1.60
2018,04,12,06,27,3.20
2018,04,12,06,28,1.60
2018,04,12,06,29,4.80
2018,04,12,06,30,3.20
2018,04,12,06,31,1.60
2018,04,12,06,32,3.20
2018,04,12,06,33,1.60
2018,04,12,06,34,1.60
2018,04,12,06,35,4.80
2018,04,12,06,36,4.80
2018,04,12,06,37,1.60
2018,04,12,06,38,3.20
2018,04,12,06,39,1.60
2018,04,12,06,40,1.60
2018,04,12,06,41,1.60
2018,04,12,06,42,1.60
2018,04,12,06,43,1.60
2018,04,12,06,46,1.60
2018,04,12,06,47,1.60
2018,04,12,07,05,1.60
2018,04,12,07,11,1.60
2018,04,12,07,46,1.60
2018,04,12,07,47,1.60
2018,04,12,07,48,1.60
2018,04,12,07,49,1.60
2018,04,12,07,50,1.60
2018,04,12,07,51,1.60
2018,04,12,07,52,1.60
2018,04,12,07,53,1.60
2018,04,12,07,54,1.60
2018,04,12,07,55,1.60
2018,04,12,07,56,1.60
2018,04,12,07,57,4.80
2018,04,12,07,58,4.80
2018,04,12,07,59,4.80
2018,04,12,08,00,3.20
2018,04,12,08,01,1.60
2018,04,12,08,02,1.60
2018,04,12,08,03,3.20
2018,04,12,08,04,3.20
2018,04,12,08,05,3.20
2018,04,12,08,06,3.20
2018,04,12,08,07,3.20
2018,04,12,08,08,3.20
2018,04,12,08,09,3.20
2018,04,12,08,10,3.20
2018,04,12,08,11,1.60
2018,04,12,08,12,4.80
2018,04,12,08,13,3.20
2018,04,12,08,14,3.20
2018,04,12,08,15,3.20
2018,04,12,08,17,1.60
2018,04,12,08,18,1.60
2018,04,12,08,19,1.60
2018,04,12,08,20,1.60
2018,04,12,08,21,1.60
2018,04,12,08,22,3.20
2018,04,12,08,25,1.60
2018,04,12,08,26,1.60
2018,04,12,08,27,3.20
2018,04,12,08,28,6.40
2018,04,12,08,29,4.80
2018,04,12,08,30,3.20
2018,04,12,08,31,4.80
2018,04,12,08,32,4.80
2018,04,12,08,33,3.20
2018,04,12,08,34,3.20
2018,04,12,08,35,4.80
2018,04,12,08,36,4.80
2018,04,12,08,37,4.80
2018,04,12,08,38,1.60
2018,04,12,08,39,9.60
2018,04,12,08,40,9.60
2018,04,12,08,41,4.80
2018,04,12,08,42,4.80
2018,04,12,08,43,9.60
2018,04,12,08,44,9.60
2018,04,12,08,45,6.40
2018,04,12,08,46,11.30
2018,04,12,08,47,3.20
2018,04,12,08,48,3.20
2018,04,12,08,49,4.80
2018,04,12,08,50,6.40
2018,04,12,08,51,4.80
2018,04,12,08,52,3.20
2018,04,12,08,53,6.40
2018,04,12,08,54,9.60
2018,04,12,08,55,4.80
2018,04,12,08,56,3.20
2018,04,12,08,57,4.80
2018,04,12,08,58,9.60
2018,04,12,08,59,11.30
2018,04,12,09,00,11.30
2018,04,12,09,01,9.60
2018,04,12,09,02,3.20
2018,04,12,09,03,1.60
2018,04,12,09,04,6.40
2018,04,12,09,05,1.60
2018,04,12,09,06,4.80
2018,04,12,09,07,4.80
2018,04,12,09,08,4.80
2018,04,12,09,09,4.80
2018,04,12,09,10,3.20
2018,04,12,09,11,6.40
2018,04,12,09,12,3.20
2018,04,12,09,13,9.60
2018,04,12,09,14,3.20
2018,04,12,09,15,4.80
2018,04,12,09,16,3.20
2018,04,12,09,17,3.20
2018,04,12,09,18,1.60
2018,04,12,09,19,3.20
2018,04,12,09,20,1.60
2018,04,12,09,21,3.20
2018,04,12,09,22,1.60
2018,04,12,09,23,6.40
2018,04,12,09,24,1.60
2018,04,12,09,25,1.60
2018,04,12,09,26,3.20
2018,04,12,09,27,4.80
2018,04,12,09,28,3.20
2018,04,12,09,29,3.20
2018,04,12,09,30,1.60
2018,04,12,09,32,4.80
2018,04,12,09,33,6.40
2018,04,12,09,34,3.20
2018,04,12,09,35,4.80
2018,04,12,09,36,1.60
2018,04,12,09,37,1.60
2018,04,12,09,38,3.20
2018,04,12,09,39,3.20
2018,04,12,09,40,3.20
2018,04,12,09,41,3.20
2018,04,12,09,42,1.60
2018,04,12,09,43,3.20
2018,04,12,09,44,3.20
2018,04,12,09,45,4.80
2018,04,12,09,46,9.60
2018,04,12,09,47,3.20
2018,04,12,09,48,1.60
2018,04,12,09,49,3.20
2018,04,12,09,50,4.80
2018,04,12,09,51,3.20
2018,04,12,09,52,1.60
2018,04,12,09,53,1.60
2018,04,12,09,54,3.20
2018,04,12,09,55,3.20
2018,04,12,09,56,3.20
2018,04,12,09,57,1.60
2018,04,12,09,58,1.60
2018,04,12,09,59,3.20
2018,04,12,10,00,1.60
2018,04,12,10,01,9.60
2018,04,12,10,02,3.20
2018,04,12,10,03,1.60
2018,04,12,10,04,3.20
2018,04,12,10,05,3.20
2018,04,12,10,06,4.80
2018,04,12,10,07,6.40
2018,04,12,10,08,3.20
2018,04,12,10,09,4.80
2018,04,12,10,10,4.80
2018,04,12,10,11,6.40
2018,04,12,10,12,1.60
2018,04,12,10,13,1.60
2018,04,12,10,14,3.20
2018,04,12,10,15,3.20
2018,04,12,10,16,1.60
2018,04,12,10,17,1.60
2018,04,12,10,18,3.20
2018,04,12,10,19,1.60
2018,04,12,10,20,3.20
2018,04,12,10,21,3.20
2018,04,12,10,22,4.80
2018,04,12,10,23,3.20
2018,04,12,10,24,3.20
2018,04,12,10,25,9.60
2018,04,12,10,26,6.40
2018,04,12,10,27,11.30
2018,04,12,10,28,4.80
2018,04,12,10,29,4.80
2018,04,12,10,30,6.40
2018,04,12,10,31,6.40
2018,04,12,10,32,4.80
2018,04,12,10,33,8.10
2018,04,12,10,34,3.20
2018,04,12,10,35,3.20
2018,04,12,10,36,4.80
2018,04,12,10,37,3.20
2018,04,12,10,38,3.20
2018,04,12,10,39,4.80
2018,04,12,10,40,1.60
2018,04,12,10,41,4.80
2018,04,12,10,42,6.40
2018,04,12,10,43,11.30
2018,04,12,10,44,1.60
2018,04,12,10,45,4.80
2018,04,12,10,46,1.60
2018,04,12,10,47,1.60
2018,04,12,10,48,3.20
2018,04,12,10,49,4.80
2018,04,12,10,50,3.20
2018,04,12,10,51,1.60
2018,04,12,10,52,4.80
2018,04,12,10,53,3.20
2018,04,12,10,54,3.20
2018,04,12,10,55,3.20
2018,04,12,10,56,4.80
2018,04,12,10,57,3.20
2018,04,12,10,58,1.60
2018,04,12,10,59,1.60
2018,04,12,11,00,3.20
2018,04,12,11,01,1.60
2018,04,12,11,02,1.60
2018,04,12,11,03,4.80
2018,04,12,11,04,3.20
2018,04,12,11,05,3.20
2018,04,12,11,06,3.20
2018,04,12,11,07,1.60
2018,04,12,11,08,1.60
2018,04,12,11,09,6.40
2018,04,12,11,10,9.60
2018,04,12,11,11,9.60
2018,04,12,11,12,6.40
2018,04,12,11,13,9.60
2018,04,12,11,14,4.80
2018,04,12,11,15,1.60
2018,04,12,11,16,4.80
2018,04,12,11,17,1.60
2018,04,12,11,18,4.80
2018,04,12,11,19,4.80
2018,04,12,11,20,4.80
2018,04,12,11,21,4.80
2018,04,12,11,22,3.20
2018,04,12,11,23,3.20
2018,04,12,11,24,1.60
2018,04,12,11,25,4.80
2018,04,12,11,26,3.20
2018,04,12,11,27,4.80
2018,04,12,11,28,9.60
2018,04,12,11,29,1.60
2018,04,12,11,30,3.20
2018,04,12,11,31,3.20
2018,04,12,11,32,9.60
2018,04,12,11,33,3.20
2018,04,12,11,34,3.20
2018,04,12,11,35,3.20
2018,04,12,11,36,1.60
2018,04,12,11,37,3.20
2018,04,12,11,38,3.20
2018,04,12,11,39,1.60
2018,04,12,11,40,4.80
2018,04,12,11,41,1.60
2018,04,12,11,42,3.20
2018,04,12,11,43,6.40
2018,04,12,11,44,3.20
2018,04,12,11,45,1.60
2018,04,12,11,46,1.60
2018,04,12,11,47,3.20
2018,04,12,11,48,3.20
2018,04,12,11,49,1.60
2018,04,12,11,50,3.20
2018,04,12,11,51,3.20
2018,04,12,11,52,3.20
2018,04,12,11,53,4.80
2018,04,12,11,54,1.60
2018,04,12,11,55,4.80
2018,04,12,11,56,4.80
2018,04,12,11,57,4.80
2018,04,12,11,58,1.60
2018,04,12,11,59,1.60
2018,04,12,12,00,3.20
2018,04,12,12,01,1.60
2018,04,12,12,02,4.80
2018,04,12,12,03,1.60
2018,04,12,12,04,3.20
2018,04,12,12,05,6.40
2018,04,12,12,06,3.20
2018,04,12,12,07,6.40
2018,04,12,12,08,1.60
2018,04,12,12,09,3.20
2018,04,12,12,10,8.10
2018,04,12,12,11,9.60
2018,04,12,12,12,6.40
2018,04,12,12,13,1.60
2018,04,12,12,14,9.60
2018,04,12,12,15,6.40
2018,04,12,12,16,12.90
2018,04,12,12,17,11.30
2018,04,12,12,18,3.20
2018,04,12,12,19,3.20
2018,04,12,12,20,3.20
2018,04,12,12,21,3.20
2018,04,12,12,22,4.80
2018,04,12,12,23,11.30
2018,04,12,12,24,1.60
2018,04,12,12,25,3.20
2018,04,12,12,26,1.60
2018,04,12,12,27,3.20
2018,04,12,12,28,4.80
2018,04,12,12,29,3.20
2018,04,12,12,30,9.60
2018,04,12,12,31,8.10
2018,04,12,12,32,4.80
2018,04,12,12,33,6.40
2018,04,12,12,34,3.20
2018,04,12,12,35,4.80
2018,04,12,12,36,3.20
2018,04,12,12,37,3.20
2018,04,12,12,38,1.60
2018,04,12,12,39,8.10
2018,04,12,12,40,4.80
2018,04,12,12,41,11.30
2018,04,12,12,42,3.20
2018,04,12,12,43,8.10
2018,04,12,12,44,6.40
2018,04,12,12,45,4.80
2018,04,12,12,46,4.80
2018,04,12,12,47,4.80
2018,04,12,12,48,3.20
2018,04,12,12,49,3.20
2018,04,12,12,50,6.40
2018,04,12,12,51,4.80
2018,04,12,12,52,9.60
2018,04,12,12,53,6.40
2018,04,12,12,54,4.80
2018,04,12,12,55,8.10
2018,04,12,12,56,3.20
2018,04,12,12,57,4.80
2018,04,12,12,58,6.40
2018,04,12,12,59,6.40
2018,04,12,13,00,3.20
2018,04,12,13,01,4.80
2018,04,12,13,02,3.20
2018,04,12,13,03,3.20
2018,04,12,13,04,4.80
2018,04,12,13,05,6.40
2018,04,12,13,06,9.60
2018,04,12,13,07,6.40
2018,04,12,13,08,4.80
2018,04,12,13,09,4.80
2018,04,12,13,10,11.30
2018,04,12,13,11,14.50
2018,04,12,13,12,14.50
2018,04,12,13,13,8.10
2018,04,12,13,14,1.60
2018,04,12,13,15,11.30
2018,04,12,13,16,9.60
2018,04,12,13,17,1.60
2018,04,12,13,18,3.20
2018,04,12,13,19,1.60
2018,04,12,13,20,4.80
2018,04,12,13,21,4.80
2018,04,12,13,22,4.80
2018,04,12,13,23,3.20
2018,04,12,13,24,6.40
2018,04,12,13,25,4.80
2018,04,12,13,26,4.80
2018,04,12,13,27,3.20
2018,04,12,13,28,3.20
2018,04,12,13,29,8.10
2018,04,12,13,30,8.10
2018,04,12,13,31,11.30
2018,04,12,13,32,11.30
2018,04,12,13,33,9.60
2018,04,12,13,34,4.80
2018,04,12,13,35,6.40
2018,04,12,13,36,4.80
2018,04,12,13,37,11.30
2018,04,12,13,38,6.40
2018,04,12,13,39,6.40
2018,04,12,13,40,6.40
2018,04,12,13,41,4.80
2018,04,12,13,42,9.60
2018,04,12,13,43,8.10
2018,04,12,13,44,4.80
2018,04,12,13,45,1.60
2018,04,12,13,46,1.60
2018,04,12,13,47,4.80
2018,04,12,13,48,3.20
2018,04,12,13,49,1.60
2018,04,12,13,50,1.60
2018,04,12,13,51,6.40
2018,04,12,13,52,8.10
2018,04,12,13,53,4.80
2018,04,12,13,54,8.10
2018,04,12,13,55,11.30
2018,04,12,13,56,8.10
2018,04,12,13,57,6.40
2018,04,12,13,58,6.40
2018,04,12,13,59,6.40
2018,04,12,14,00,9.60
2018,04,12,14,01,9.60
2018,04,12,14,02,3.20
2018,04,12,14,03,3.20
2018,04,12,14,04,8.10
2018,04,12,14,05,9.60
2018,04,12,14,06,6.40
2018,04,12,14,07,8.10
2018,04,12,14,08,6.40
2018,04,12,14,09,9.60
2018,04,12,14,10,6.40
2018,04,12,14,11,4.80
2018,04,12,14,12,4.80
2018,04,12,14,13,4.80
2018,04,12,14,14,9.60
2018,04,12,14,15,16.10
2018,04,12,14,16,4.80
2018,04,12,14,17,12.90
2018,04,12,14,18,16.10
2018,04,12,14,19,6.40
2018,04,12,14,20,9.60
2018,04,12,14,21,8.10
2018,04,12,14,22,11.30
2018,04,12,14,23,11.30
2018,04,12,14,24,11.30
2018,04,12,14,25,6.40
2018,04,12,14,26,8.10
2018,04,12,14,27,6.40
2018,04,12,14,28,6.40
2018,04,12,14,29,12.90
2018,04,12,14,30,8.10
2018,04,12,14,31,6.40
2018,04,12,14,32,11.30
2018,04,12,14,33,4.80
2018,04,12,14,34,8.10
2018,04,12,14,35,8.10
2018,04,12,14,36,8.10
2018,04,12,14,37,8.10
2018,04,12,14,38,6.40
2018,04,12,14,39,8.10
2018,04,12,14,40,9.60
2018,04,12,14,41,11.30
2018,04,12,14,42,6.40
2018,04,12,14,43,6.40
2018,04,12,14,44,9.60
2018,04,12,14,45,11.30
2018,04,12,14,46,8.10
2018,04,12,14,47,4.80
2018,04,12,14,48,4.80
2018,04,12,14,49,6.40
2018,04,12,14,50,4.80
2018,04,12,14,51,6.40
2018,04,12,14,52,8.10
2018,04,12,14,53,6.40
2018,04,12,14,54,6.40
2018,04,12,14,55,8.10
2018,04,12,14,56,11.30
2018,04,12,14,57,14.50
2018,04,12,14,58,6.40
2018,04,12,14,59,9.60
2018,04,12,15,00,8.10
2018,04,12,15,01,3.20
2018,04,12,15,02,4.80
2018,04,12,15,03,6.40
2018,04,12,15,04,9.60
2018,04,12,15,05,8.10
2018,04,12,15,06,4.80
2018,04,12,15,07,4.80
2018,04,12,15,08,4.80
2018,04,12,15,09,8.10
2018,04,12,15,10,6.40
2018,04,12,15,11,4.80
2018,04,12,15,12,4.80
2018,04,12,15,13,3.20
2018,04,12,15,14,1.60
2018,04,12,15,15,1.60
2018,04,12,15,16,3.20
2018,04,12,15,17,3.20
2018,04,12,15,18,6.40
2018,04,12,15,19,4.80
2018,04,12,15,20,3.20
2018,04,12,15,21,3.20
2018,04,12,15,22,6.40
2018,04,12,15,23,9.60
2018,04,12,15,24,8.10
2018,04,12,15,25,3.20
2018,04,12,15,26,4.80
2018,04,12,15,27,3.20
2018,04,12,15,28,3.20
2018,04,12,15,29,4.80
2018,04,12,15,30,3.20
2018,04,12,15,31,9.60
2018,04,12,15,32,3.20
2018,04,12,15,33,4.80
2018,04,12,15,34,9.60
2018,04,12,15,35,8.10
2018,04,12,15,36,11.30
2018,04,12,15,37,9.60
2018,04,12,15,38,6.40
2018,04,12,15,39,9.60
2018,04,12,15,40,9.60
2018,04,12,15,41,3.20
2018,04,12,15,42,8.10
2018,04,12,15,43,3.20
2018,04,12,15,44,9.60
2018,04,12,15,45,11.30
2018,04,12,15,46,9.60
2018,04,12,15,47,9.60
2018,04,12,15,48,12.90
2018,04,12,15,49,8.10
2018,04,12,15,50,16.10
2018,04,12,15,51,11.30
2018,04,12,15,52,6.40
2018,04,12,15,53,11.30
2018,04,12,15,54,12.90
2018,04,12,15,55,6.40
2018,04,12,15,56,3.20
2018,04,12,15,57,4.80
2018,04,12,15,58,8.10
2018,04,12,15,59,11.30
2018,04,12,16,00,9.60
2018,04,12,16,01,11.30
2018,04,12,16,02,3.20
2018,04,12,16,03,4.80
2018,04,12,16,04,6.40
2018,04,12,16,05,11.30
2018,04,12,16,06,8.10
2018,04,12,16,07,6.40
2018,04,12,16,08,8.10
2018,04,12,16,09,14.50
2018,04,12,16,10,11.30
2018,04,12,16,11,11.30
2018,04,12,16,12,14.50
2018,04,12,16,13,9.60
2018,04,12,16,14,9.60
2018,04,12,16,15,6.40
2018,04,12,16,16,11.30
2018,04,12,16,17,8.10
2018,04,12,16,18,12.90
2018,04,12,16,19,12.90
2018,04,12,16,20,14.50
2018,04,12,16,21,9.60
2018,04,12,16,22,20.90
2018,04,12,16,23,8.10
2018,04,12,16,24,12.90
2018,04,12,16,25,4.80
2018,04,12,16,26,6.40
2018,04,12,16,27,9.60
2018,04,12,16,28,11.30
2018,04,12,16,29,14.50
2018,04,12,16,30,16.10
2018,04,12,16,31,16.10
2018,04,12,16,32,12.90
2018,04,12,16,33,6.40
2018,04,12,16,34,9.60
2018,04,12,16,35,11.30
2018,04,12,16,36,8.10
2018,04,12,16,37,12.90
2018,04,12,16,38,16.10
2018,04,12,16,39,12.90
2018,04,12,16,40,6.40
2018,04,12,16,41,11.30
2018,04,12,16,42,12.90
2018,04,12,16,43,9.60
2018,04,12,16,44,8.10
2018,04,12,16,45,9.60
2018,04,12,16,46,6.40
2018,04,12,16,47,6.40
2018,04,12,16,48,6.40
2018,04,12,16,49,9.60
2018,04,12,16,50,9.60
2018,04,12,16,51,4.80
2018,04,12,16,52,8.10
2018,04,12,16,53,9.60
2018,04,12,16,54,17.70
2018,04,12,16,55,14.50
2018,04,12,16,56,16.10
2018,04,12,16,57,6.40
2018,04,12,16,58,4.80
2018,04,12,16,59,12.90
2018,04,12,17,00,8.10
2018,04,12,17,01,4.80
2018,04,12,17,02,3.20
2018,04,12,17,03,4.80
2018,04,12,17,04,8.10
2018,04,12,17,05,4.80
2018,04,12,17,06,11.30
2018,04,12,17,07,9.60
2018,04,12,17,08,6.40
2018,04,12,17,09,9.60
2018,04,12,17,10,14.50
2018,04,12,17,11,11.30
2018,04,12,17,12,8.10
2018,04,12,17,13,6.40
2018,04,12,17,14,14.50
2018,04,12,17,15,8.10
2018,04,12,17,16,12.90
2018,04,12,17,17,11.30
2018,04,12,17,18,8.10
2018,04,12,17,19,9.60
2018,04,12,17,20,14.50
2018,04,12,17,21,8.10
2018,04,12,17,22,14.50
2018,04,12,17,23,14.50
2018,04,12,17,24,6.40
2018,04,12,17,25,9.60
2018,04,12,17,26,6.40
2018,04,12,17,27,11.30
2018,04,12,17,28,14.50
2018,04,12,17,29,9.60
2018,04,12,17,30,9.60
2018,04,12,17,31,8.10
2018,04,12,17,32,12.90
2018,04,12,17,33,9.60
2018,04,12,17,34,19.30
2018,04,12,17,35,14.50
2018,04,12,17,36,6.40
2018,04,12,17,37,6.40
2018,04,12,17,38,14.50
2018,04,12,17,39,11.30
2018,04,12,17,40,11.30
2018,04,12,17,41,8.10
2018,04,12,17,42,14.50
2018,04,12,17,43,11.30
2018,04,12,17,44,8.10
2018,04,12,17,45,12.90
2018,04,12,17,46,14.50
2018,04,12,17,47,16.10
2018,04,12,17,48,11.30
2018,04,12,17,49,6.40
2018,04,12,17,50,12.90
2018,04,12,17,51,14.50
2018,04,12,17,52,14.50
2018,04,12,17,53,14.50
2018,04,12,17,54,14.50
2018,04,12,17,55,16.10
2018,04,12,17,56,11.30
2018,04,12,17,57,9.60
2018,04,12,17,58,8.10
2018,04,12,17,59,17.70
2018,04,12,18,00,19.30
2018,04,12,18,01,11.30
2018,04,12,18,02,9.60
2018,04,12,18,03,14.50
2018,04,12,18,04,12.90
2018,04,12,18,05,17.70
2018,04,12,18,06,16.10
2018,04,12,18,07,16.10
2018,04,12,18,08,12.90
2018,04,12,18,09,11.30
2018,04,12,18,10,17.70
2018,04,12,18,11,12.90
2018,04,12,18,12,11.30
2018,04,12,18,13,11.30
2018,04,12,18,14,14.50
2018,04,12,18,15,14.50
2018,04,12,18,16,9.60
2018,04,12,18,17,8.10
2018,04,12,18,18,8.10
2018,04,12,18,19,12.90
2018,04,12,18,20,6.40
2018,04,12,18,21,11.30
2018,04,12,18,22,14.50
2018,04,12,18,23,8.10
2018,04,12,18,24,11.30
2018,04,12,18,25,6.40
2018,04,12,18,26,8.10
2018,04,12,18,27,8.10
2018,04,12,18,28,6.40
2018,04,12,18,29,8.10
2018,04,12,18,30,9.60
2018,04,12,18,31,16.10
2018,04,12,18,32,4.80
2018,04,12,18,33,4.80
2018,04,12,18,34,9.60
2018,04,12,18,35,11.30
2018,04,12,18,36,11.30
2018,04,12,18,37,12.90
2018,04,12,18,38,9.60
2018,04,12,18,39,4.80
2018,04,12,18,40,6.40
2018,04,12,18,41,6.40
2018,04,12,18,42,3.20
2018,04,12,18,43,8.10
2018,04,12,18,44,8.10
2018,04,12,18,45,6.40
2018,04,12,18,46,4.80
2018,04,12,18,47,11.30
2018,04,12,18,48,9.60
2018,04,12,18,49,8.10
2018,04,12,18,50,9.60
2018,04,12,18,51,8.10
2018,04,12,18,52,4.80
2018,04,12,18,53,4.80
2018,04,12,18,54,4.80
2018,04,12,18,55,8.10
2018,04,12,18,56,11.30
2018,04,12,18,57,9.60
2018,04,12,18,58,8.10
2018,04,12,18,59,3.20
2018,04,12,19,00,8.10
2018,04,12,19,01,9.60
2018,04,12,19,02,8.10
2018,04,12,19,03,9.60
2018,04,12,19,04,4.80
2018,04,12,19,05,8.10
2018,04,12,19,06,6.40
2018,04,12,19,07,4.80
2018,04,12,19,08,4.80
2018,04,12,19,09,14.50
2018,04,12,19,10,8.10
2018,04,12,19,11,8.10
2018,04,12,19,12,14.50
2018,04,12,19,13,11.30
2018,04,12,19,14,9.60
2018,04,12,19,15,8.10
2018,04,12,19,16,6.40
2018,04,12,19,17,6.40
2018,04,12,19,18,4.80
2018,04,12,19,19,6.40
2018,04,12,19,20,6.40
2018,04,12,19,21,4.80
2018,04,12,19,22,4.80
2018,04,12,19,23,4.80
2018,04,12,19,24,6.40
2018,04,12,19,25,8.10
2018,04,12,19,26,9.60
2018,04,12,19,27,6.40
2018,04,12,19,28,6.40
2018,04,12,19,29,4.80
2018,04,12,19,30,3.20
2018,04,12,19,31,3.20
2018,04,12,19,32,3.20
2018,04,12,19,33,3.20
2018,04,12,19,34,4.80
2018,04,12,19,35,6.40
2018,04,12,19,36,3.20
2018,04,12,19,37,3.20
2018,04,12,19,38,3.20
2018,04,12,19,39,4.80
2018,04,12,19,40,4.80
2018,04,12,19,41,9.60
2018,04,12,19,42,11.30
2018,04,12,19,43,4.80
2018,04,12,19,44,6.40
2018,04,12,19,45,4.80
2018,04,12,19,46,4.80
2018,04,12,19,47,6.40
2018,04,12,19,48,9.60
2018,04,12,19,49,9.60
2018,04,12,19,50,3.20
2018,04,12,19,51,4.80
2018,04,12,19,52,1.60
2018,04,12,19,54,1.60
2018,04,12,19,55,4.80
2018,04,12,19,56,3.20
2018,04,12,19,57,3.20
2018,04,12,19,58,6.40
2018,04,12,19,59,4.80
2018,04,12,20,00,8.10
2018,04,12,20,01,8.10
2018,04,12,20,02,4.80
2018,04,12,20,03,4.80
2018,04,12,20,04,3.20
2018,04,12,20,05,1.60
2018,04,12,20,06,1.60
2018,04,12,20,07,3.20
2018,04,12,20,09,3.20
2018,04,12,20,10,3.20
2018,04,12,20,11,6.40
2018,04,12,20,12,4.80
2018,04,12,20,13,6.40
2018,04,12,20,14,4.80
2018,04,12,20,15,6.40
2018,04,12,20,16,9.60
2018,04,12,20,17,6.40
2018,04,12,20,18,6.40
2018,04,12,20,19,3.20
2018,04,12,20,20,3.20
2018,04,12,20,21,1.60
2018,04,12,20,22,1.60
2018,04,12,20,23,1.60
2018,04,12,20,24,4.80
2018,04,12,20,25,6.40
2018,04,12,20,26,8.10
2018,04,12,20,27,6.40
2018,04,12,20,28,8.10
2018,04,12,20,29,6.40
2018,04,12,20,30,3.20
2018,04,12,20,31,3.20
2018,04,12,20,32,3.20
2018,04,12,20,33,4.80
2018,04,12,20,34,6.40
2018,04,12,20,35,9.60
2018,04,12,20,36,3.20
2018,04,12,20,37,3.20
2018,04,12,20,38,6.40
2018,04,12,20,39,6.40
2018,04,12,20,40,1.60
2018,04,12,20,41,3.20
2018,04,12,20,42,4.80
2018,04,12,20,43,3.20
2018,04,12,20,44,6.40
2018,04,12,20,45,3.20
2018,04,12,20,46,4.80
2018,04,12,20,47,3.20
2018,04,12,20,48,1.60
2018,04,12,20,49,3.20
2018,04,12,20,50,3.20
2018,04,12,20,51,1.60
2018,04,12,20,52,1.60
2018,04,12,20,53,3.20
2018,04,12,20,54,8.10
2018,04,12,20,55,4.80
2018,04,12,20,56,3.20
2018,04,12,20,57,3.20
2018,04,12,20,58,4.80
2018,04,12,20,59,3.20
2018,04,12,21,00,3.20
2018,04,12,21,01,6.40
2018,04,12,21,02,3.20
2018,04,12,21,03,6.40
2018,04,12,21,04,6.40
2018,04,12,21,05,3.20
2018,04,12,21,06,8.10
2018,04,12,21,07,3.20